995  
ASUS41 KRLX 231010  
RWRRLX  
REGIONAL WEATHER ROUNDUP  
NATIONAL WEATHER SERVICE CHARLESTON WV  
600 AM EDT SAT MAR 23 2019  
 
NOTE: "FAIR" INDICATES FEW OR NO CLOUDS BELOW 12,000 FEET WITH NO  
SIGNIFICANT WEATHER AND/OR S TO VISIBILITY
.  
 
WVZ003-231100-  
NORTHERN PANHANDLE OF WEST VIRGINIA  
 
CITY SKY/WX TMP DP RH WIND PRES REMARKS
 
WHEELING FAIR 26 19 74 W8 30.14R  

 
 
WVZ009-231100-  
NORTHWEST WEST VIRGINIA  
 
CITY SKY/WX TMP DP RH WIND PRES REMARKS
 
PARKERSBURG FAIR 30 23 75 CALM 30.22R  

 
 
WVZ006-231100-  
WESTERN WEST VIRGINIA  
 
CITY SKY/WX TMP DP RH WIND PRES REMARKS
 
HUNTINGTON FAIR 33 23 66 NW6 30.22R  

 
 
WVZ015-231100-  
WEST CENTRAL WEST VIRGINIA  
 
CITY SKY/WX TMP DP RH WIND PRES REMARKS
 
CHARLESTON FAIR 34 25 69 W7 30.20R  

 
 
WVZ022-031-231100-  
NORTH CENTRAL WEST VIRGINIA  
 
CITY SKY/WX TMP DP RH WIND PRES REMARKS
 
MORGANTOWN FAIR 28 18 66 NW7 30.15R  
CLARKSBURG CLOUDY 32 19 58 N7 30.15R  
BUCKHANNON FAIR 28 21 74 NW8G14 30.13R  

 
 
WVZ025-035-042-045-231100-  
SOUTHERN WEST VIRGINIA  
 
CITY SKY/WX TMP DP RH WIND PRES REMARKS
 
BECKLEY FAIR 30 23 75 NW10 30.11R  
LOGAN FAIR 34 25 69 CALM 30.17R  
PINEVILLE FAIR 29 25 86 MISG 30.21R  
BLUEFIELD FAIR 28 20 71 W8 30.10R  
LEWISBURG FAIR 32 22 65 NW8G18 30.08R  

 
 
WVZ047-231100-  
NORTHERN MOUNTAINS OF WEST VIRGINIA  
 
CITY SKY/WX TMP DP RH WIND PRES REMARKS
 
ELKINS MOCLDY 30 20 66 NW5 30.10R  

 
 
WVZ052-231100-  
EASTERN PANHANDLE OF WEST VIRGINIA  
 
CITY SKY/WX TMP DP RH WIND PRES REMARKS
 
MARTINSBURG FAIR 33 21 61 NW17G24 29.98R  
PETERSBURG FAIR 34 20 57 NW10G18 30.05R  

 
 
SOUTHEAST OHIO/NORTHEAST KENTUCKY  
 
CITY SKY/WX TMP DP RH WIND PRES REMARKS
 
ATHENS NOT AVBL  
ASHLAND FAIR 27 24 89 CALM 30.24R  

 
 
 
CLICK HERE TO GO TO PREVIOUS BULLETINS.

The Nexlab WV Page
The Nexlab OH Page
The Nexlab KY Page
The Nexlab VA Page Main Text Page